THORAD AGENA D DEB, 5422

Orbit data source: Space-Track

THORAD AGENA D DEB, 5422 is space debris in SSO originally from a launch on Wed, 08 Apr 1970 UTC launched from the Air Force Western Test Range (AFWTR). Debris objects in space refer to the collection of defunct objects orbiting the Earth. Examples of debris include non-operational satellites, rocket bodies, and fragments generated from explosions, collisions, or faulty payload assembly.

Loading next visibility...
Identifier
5422, 1970-025LA
Orbit
SSO
Country
Flag of USUS
Related business
Manufacturer
Unknown
Mission
Spacecraft
Bus & Motor
Unknown
Mass
Unknown
Launch date (UTC)
1970-04-08 (56 years ago)
Launch vehicle
Unknown
Launch site
Air Force Western Test Range (AFWTR)
Object type
Payload
Rocket body
Debris
Shape & HBR
Unknown shape, 0.1 m
Radar Cross Section
Medium (>0.1 m² and <1 m²)

Expand to show TLE details & history
Last TLE update: 11 hours ago

TLE from 11 hours ago
0 THORAD AGENA D DEB
1 05422U 70025LA  26256.22883452  .00003856  00000-0  10110-2 0  9999
2 05422 100.0061  96.3471 0067250 115.5775 245.2383 14.48640150869737
Epoch: 2026-09-13T05:29Z
TLE epoch observation values (Epoch: 2026-09-13T05:29:31.302Z)
Latitude
-0.00011°
Longitude
21.74021°
Altitude
753.292 km
Speed
7.467 km/s
True Right ascension
06h 25m 23s
True Declination
0° 00' 00"
Sunlit
Object was in daylight at epoch
Visualization orbit readout
Latitude
Unknown
Longitude
Unknown
Altitude
Unknown
Speed
Unknown
Apparent Right ascension
Unknown
Apparent Declination
Unknown
Sunlit
N/A
Visualization observer readout
Local Sidereal Time
09:27:02
Azimuth
Unknown
Elevation
Unknown
Doppler factor
Unknown
Orbital elements
Apogee altitude
775.065 km
Perigee altitude
679.497 km
Semi-major axis
7,105.418 km
Eccentricity
0.00673
Inclination
100.0061°
RAAN
96.3471°
Arg. of periapsis
115.5775°
True anomaly
244.541°
Mean anomaly
245.2383°
Eccentric anomaly
244.8894°
Mean motion
3.62375 °/min
Orbital period
99.34 mins
BSTAR
0.001011

Documentation

Showing up to 5 results
|